Waarnemingen

Advertentie
Mijn weer
Katterjakk A, Zweden (2019): temperatuur & dauwpunt: 18.08.2019 00:00:00 - 24.08.2019 00:00:00 (CEST)Katterjakk A, Zweden (2019): windsnelheid & windstoten: 18.08.2019 00:00:00 - 24.08.2019 00:00:00 (CEST)Katterjakk A, Zweden (2019): windrichting: 18.08.2019 00:00:00 - 24.08.2019 00:00:00 (CEST)Katterjakk A, Zweden (2019): luchtdruk: 18.08.2019 00:00:00 - 24.08.2019 00:00:00 (CEST)Katterjakk A, Zweden (2019): zicht: 18.08.2019 00:00:00 - 24.08.2019 00:00:00 (CEST)Katterjakk A, Zweden (2019): neerslag: 18.08.2019 00:00:00 - 24.08.2019 00:00:00 (CEST)
Datum & Tijd tt [°C] td [°C] ff [km/u] ff [kn] fx [km/u] fx [kn] dd ppp [hPa] vv [km] rr [mm]
24.08.2019 00:00:00 8,8 7,1 15 8 26 14 WZW 1017,0 50 0,0
23.08.2019 23:00:00 8,5 6,5 6 3 19 10 NNO 1016,5 50 0,0
23.08.2019 22:00:00 9,0 7,0 11 6 16 9 WZW 1016,1 50 0,0
23.08.2019 21:00:00 10,3 5,9 2 1 11 6 N 1015,2 50 0,0
23.08.2019 20:00:00 12,3 5,5 5 3 10 6 NO 1014,1 50 0,0
23.08.2019 19:00:00 12,7 6,9 4 2 16 9 NO 1013,6 50 0,0
23.08.2019 18:00:00 12,7 6,1 9 5 16 9 NNO 1013,2 48 0,0
23.08.2019 17:00:00 13,3 5,2 9 5 15 8 NNO 1012,7 50 0,0
23.08.2019 16:00:00 14,3 4,8 11 6 20 11 NNO 1012,3 40 0,0
23.08.2019 15:00:00 14,0 5,6 11 6 18 10 O 1012,3 44 0,0
23.08.2019 14:00:00 13,0 6,3 13 7 24 13 ONO 1012,5 50 0,0
23.08.2019 13:00:00 12,7 7,8 15 8 30 16 O 1012,5 50 0,0
23.08.2019 12:00:00 12,9 7,8 9 5 16 8 ONO 1012,4 40 0,0
23.08.2019 11:00:00 11,4 7,1 7 4 11 6 ONO 1012,8 50 0,0
23.08.2019 10:00:00 11,4 7,3 4 2 9 5 NO 1013,0 50 0,0
23.08.2019 09:00:00 9,4 6,7 0 0 6 3 N 1013,6 50 0,0
23.08.2019 08:00:00 8,1 7,3 0 0 5 3 N 1014,1 50 0,0
23.08.2019 07:00:00 8,0 7,6 4 2 7 4 N 1014,2 50 0,0
23.08.2019 06:00:00 6,3 6,2 3 2 8 4 NW 1014,7 50 0,0
23.08.2019 05:00:00 5,0 4,9 4 2 7 4 W 1015,2 44 0,0
23.08.2019 04:00:00 6,6 6,3 0 0 7 4 N 1015,1 50 0,0
23.08.2019 03:00:00 7,2 6,6 3 1 11 6 WNW 1015,5 50 0,0
23.08.2019 02:00:00 6,3 5,6 2 1 6 4 Z 1015,9 50 0,0
23.08.2019 01:00:00 6,7 6,3 3 1 10 5 ONO 1016,0 50 0,0
23.08.2019 00:00:00 5,9 5,3 3 1 6 4 Z 1016,6 50 0,0
22.08.2019 23:00:00 8,1 6,7 4 2 11 6 W 1016,2 50 0,0
22.08.2019 22:00:00 6,5 5,8 9 5 10 6 WZW 1016,9 50 0,0
22.08.2019 21:00:00 9,0 6,8 0 0 9 5 N 1016,5 50 0,0
22.08.2019 20:00:00 10,6 6,2 5 3 8 4 ONO 1016,1 50 0,0
22.08.2019 19:00:00 11,2 6,5 4 2 8 4 NNO 1016,0 50 0,0
22.08.2019 18:00:00 11,3 6,8 6 3 10 6 NNO 1016,2 50 0,0
22.08.2019 17:00:00 10,9 7,2 5 3 16 9 ONO 1016,7 34 0,1
22.08.2019 16:00:00 10,9 6,8 10 6 21 12 NW 1017,0 44 0,0
22.08.2019 15:00:00 10,1 7,9 12 6 22 12 NW 1017,2 13 0,2
22.08.2019 14:00:00 10,8 7,1 12 6 19 10 NNW 1017,0 50 0,0
22.08.2019 13:00:00 10,8 6,5 6 3 15 8 NW 1016,9 50 0,0
22.08.2019 12:00:00 10,3 7,2 3 2 14 7 WNW 1017,3 50 0,0
22.08.2019 11:00:00 10,0 6,9 4 2 16 9 WNW 1017,3 50 0,0
22.08.2019 10:00:00 9,4 7,3 12 7 22 12 W 1017,3 47 0,0
22.08.2019 09:00:00 8,4 7,3 7 4 16 8 WNW 1017,5 6 0,0
22.08.2019 08:00:00 8,7 6,7 12 6 23 12 W 1017,2 50 0,0
22.08.2019 07:00:00 8,7 6,3 13 7 26 14 W 1017,0 50 0,0
22.08.2019 06:00:00 8,6 6,2 17 9 28 15 W 1016,9 50 0,0
22.08.2019 05:00:00 8,6 6,4 14 8 25 13 W 1016,9 50 0,0
22.08.2019 04:00:00 8,6 6,4 19 10 29 15 W 1016,9 50 0,0
22.08.2019 03:00:00 8,6 6,6 14 8 26 14 W 1016,6 50 0,0
22.08.2019 02:00:00 8,8 6,6 10 6 29 16 W 1016,4 50 0,0
22.08.2019 01:00:00 9,1 7,1 19 10 36 19 W 1015,7 50 0,0
22.08.2019 00:00:00 9,1 7,1 22 12 32 18 W 1015,7 50 0,0
21.08.2019 23:00:00 9,2 7,5 21 12 34 18 W 1015,3 50 0,0
21.08.2019 22:00:00 9,5 7,9 17 9 30 16 W 1014,7 50 0,8
21.08.2019 21:00:00 9,6 8,8 8 5 21 11 NW 1014,1 11 0,1
21.08.2019 20:00:00 10,2 8,3 6 3 17 9 WNW 1013,6 50 0,0
21.08.2019 19:00:00 11,0 7,9 6 3 26 14 W 1013,1 30 0,0
21.08.2019 18:00:00 11,0 8,2 15 8 32 18 WNW 1012,5 18 0,0
21.08.2019 17:00:00 13,7 5,1 21 11 33 18 WZW 1011,3 50 0,0
21.08.2019 16:00:00 14,3 6,4 19 10 35 19 Z 1011,0 50 0,0
21.08.2019 15:00:00 13,1 7,5 19 11 35 19 W 1011,2 50 0,0
21.08.2019 14:00:00 14,5 5,0 22 12 34 18 Z 1010,5 50 0,0
21.08.2019 13:00:00 15,2 6,2 14 8 22 12 WZW 1010,1 48 0,0
21.08.2019 12:00:00 13,1 9,0 6 3 12 7 ONO 1010,6 48 0,0
21.08.2019 11:00:00 12,6 9,1 6 3 8 5 N 1010,5 50 0,0
21.08.2019 10:00:00 10,3 8,7 9 5 15 8 NNO 1011,0 45 0,0
21.08.2019 09:00:00 9,8 8,9 5 3 12 6 NO 1011,1 46 0,0
21.08.2019 08:00:00 10,8 8,9 3 2 7 4 ONO 1010,5 40 0,0
21.08.2019 07:00:00 9,4 9,1 2 1 8 4 NO 1010,8 33 0,0
21.08.2019 06:00:00 9,0 8,7 2 1 8 4 NNW 1010,8 24 0,0
21.08.2019 05:00:00 9,2 8,7 7 4 11 6 N 1010,6 39 0,0
21.08.2019 04:00:00 8,4 8,0 4 2 9 5 ZZW 1010,7 39 0,0
21.08.2019 03:00:00 8,8 8,5 6 3 9 5 WZW 1010,5 48 0,0
21.08.2019 02:00:00 8,7 8,1 4 2 15 8 Z 1010,5 50 0,0
21.08.2019 01:00:00 8,6 8,3 6 4 9 5 ZW 1010,4 38 0,0
21.08.2019 00:00:00 9,6 9,3 3 2 13 7 ZZW 1010,0 31 0,1
20.08.2019 23:00:00 9,9 9,3 9 5 13 7 Z 1010,1 22 0,4
20.08.2019 22:00:00 9,6 9,0 4 2 5 3 WZW 1010,1 42 0,0
20.08.2019 21:00:00 9,9 8,7 0 0 6 3 N 1009,6 50 0,0
20.08.2019 20:00:00 11,6 9,0 3 2 12 7 NO 1009,0 47 0,0
20.08.2019 19:00:00 12,0 8,5 9 5 17 9 W 1008,6 49 0,0
20.08.2019 18:00:00 12,3 8,6 10 6 19 10 WNW 1008,2 50 0,0
20.08.2019 17:00:00 12,9 9,0 11 6 18 10 WNW 1007,5 50 0,0
20.08.2019 16:00:00 12,8 9,2 12 7 19 10 NW 1007,0 46 0,0
20.08.2019 15:00:00 12,9 9,0 12 6 20 11 WNW 1006,6 44 0,0
20.08.2019 14:00:00 12,3 9,3 13 7 22 12 NW 1006,1 44 0,0
20.08.2019 13:00:00 12,9 9,9 14 8 22 12 NNW 1005,3 42 0,0
20.08.2019 12:00:00 12,7 10,2 9 5 20 11 N 1005,0 50 0,0
20.08.2019 11:00:00 11,7 9,3 10 6 22 12 NW 1004,7 50 0,0
20.08.2019 10:00:00 11,2 8,9 10 5 16 9 WNW 1004,1 50 0,0
20.08.2019 09:00:00 11,6 10,0 0 0 18 10 N 1003,4 50 0,0
20.08.2019 08:00:00 10,3 9,7 12 7 18 10 NNW 1002,8 50 0,0
20.08.2019 07:00:00 10,1 9,5 9 5 18 10 NNW 1002,4 50 0,0
20.08.2019 06:00:00 9,8 9,2 6 3 20 11 NNW 1002,1 27 0,7
20.08.2019 05:00:00 10,3 8,7 14 8 19 11 ZW 1001,4 35 1,3
20.08.2019 04:00:00 10,3 9,4 6 4 11 6 ZZW 1001,0 4,4 3,6
20.08.2019 03:00:00 9,7 9,1 6 3 17 9 Z 1000,7 5 3,6
20.08.2019 02:00:00 10,6 10,0 8 4 25 13 WNW 999,8 47 0,4
20.08.2019 01:00:00 11,0 9,9 17 9 27 15 ZW 998,9 50 0,9
20.08.2019 00:00:00 11,3 10,4 13 7 26 14 W 998,2 50 0,1
19.08.2019 23:00:00 11,3 10,2 13 7 26 14 W 997,5 33 0,5
19.08.2019 22:00:00 10,9 9,8 17 9 29 15 WZW 997,0 16 1,3
19.08.2019 21:00:00 10,8 9,9 18 10 29 15 WZW 996,6 10 3,2
19.08.2019 20:00:00 11,0 10,2 12 7 28 15 W 996,1 10 3,2
19.08.2019 19:00:00 10,9 9,8 20 11 42 23 W 995,8 10 1,8
19.08.2019 18:00:00 11,3 10,2 12 7 24 13 W 995,4 7 2,7
19.08.2019 17:00:00 11,5 11,0 6 3 11 6 NW 995,6 5 0,9
19.08.2019 16:00:00 11,8 11,3 3 1 12 7 N 995,8 4,8 0,4
19.08.2019 15:00:00 12,0 11,2 7 4 10 5 O 996,1 4,8 0,1
19.08.2019 14:00:00 12,4 11,1 0 0 21 11 N 996,2 26 0,0
19.08.2019 13:00:00 11,8 10,5 19 10 29 16 ONO 997,0 16 0,0
19.08.2019 12:00:00 13,0 9,6 4 2 12 7 O 997,2 50 0,0
19.08.2019 11:00:00 12,6 11,3 5 3 11 6 NNO 997,8 31 0,0
19.08.2019 10:00:00 12,3 11,2 4 2 9 5 NW 998,7 45 0,0
19.08.2019 09:00:00 12,0 10,9 3 2 9 5 N 999,7 20 0,2
19.08.2019 08:00:00 10,9 10,0 5 3 9 5 NNW 1000,4 50 0,0
19.08.2019 07:00:00 9,8 9,2 5 3 11 6 NW 1001,2 50 0,0
19.08.2019 06:00:00 9,3 9,0 3 1 7 4 NNW 1002,0 50 0,0
19.08.2019 05:00:00 9,2 9,1 0 0 8 5 N 1002,3 1,1 0,0
19.08.2019 04:00:00 9,3 9,2 4 2 10 5 NO 1002,5 13 0,0
19.08.2019 03:00:00 9,7 9,4 5 3 11 6 ZO 1002,5 50 0,0
19.08.2019 02:00:00 10,1 9,8 5 3 10 6 ZZW 1002,7 50 0,0
19.08.2019 01:00:00 10,0 9,7 3 2 8 4 ZZO 1002,9 39 0,0
19.08.2019 00:00:00 10,2 9,7 3 1 14 7 NNW 1002,5 50 0,0
18.08.2019 23:00:00 11,2 9,9 8 4 20 11 W 1002,1 50 0,0
18.08.2019 22:00:00 11,9 10,3 12 6 24 13 NW 1001,9 50 0,0
18.08.2019 21:00:00 12,9 10,4 8 5 23 13 NNO 1001,2 50 0,0
18.08.2019 20:00:00 13,8 8,4 16 9 24 13 Z 1001,0 40 0,1
18.08.2019 19:00:00 14,1 10,1 6 3 22 12 N 1000,9 41 0,0
18.08.2019 18:00:00 14,2 11,4 11 6 25 13 N 1000,4 50 0,2
18.08.2019 17:00:00 14,8 10,2 15 8 36 19 ZZO 1000,5 30 0,1
18.08.2019 16:00:00 15,8 10,6 21 11 42 23 Z 999,8 50 0,1
18.08.2019 15:00:00 15,0 11,4 26 14 35 19 Z 1000,2 11 0,1
18.08.2019 14:00:00 17,5 10,4 18 10 41 22 OZO 999,6 50 0,0
18.08.2019 13:00:00 15,0 10,4 22 12 33 18 Z 999,7 19 0,0
18.08.2019 12:00:00 16,1 10,2 13 7 22 12 O 999,3 49 0,0
18.08.2019 11:00:00 16,2 7,4 7 4 35 19 ZZW 999,1 50 0,0
18.08.2019 10:00:00 17,1 8,5 23 12 38 20 ZZW 998,5 49 0,0
18.08.2019 09:00:00 16,2 7,9 24 13 47 25 Z 998,3 49 0,0
18.08.2019 08:00:00 15,1 7,6 22 12 34 18 Z 998,2 50 0,0
18.08.2019 07:00:00 13,1 8,6 9 5 37 20 NO 998,7 50 0,0
18.08.2019 06:00:00 14,3 6,6 26 14 50 27 ZZW 998,2 50 0,0
18.08.2019 05:00:00 14,0 6,4 29 16 47 25 ZZW 998,3 50 0,0
18.08.2019 04:00:00 13,4 7,6 8 5 27 15 Z 999,1 49 0,0
18.08.2019 03:00:00 13,2 8,3 8 5 22 12 Z 999,2 50 0,0
18.08.2019 02:00:00 12,8 11,0 8 4 17 9 NNW 999,4 50 0,0
18.08.2019 01:00:00 12,2 11,3 6 4 10 6 NNO 999,8 48 0,1
18.08.2019 00:00:00 11,8 11,0 4 2 10 5 W 1000,1 31 0,1

tt = temperatuur
td = dauwpunt
ff = windsnelheid
fx = windstoten
dd = windrichting
ppp = luchtdruk
vv = zicht
rr = neerslag

Weerstations in de omgeving